sat.trackr.live / text

‹ back to catalog

STARLINK-30283

NORAD 57680 · 2023-124T

PAYLOAD ACTIVE UNKNOWN

§ Identity

Operator
Country
US
Launch date
2023-08-22
Launch site
AFWTR
Launch vehicle
Mass (kg)
RCS (m²)

Purposes: comms

External: N2YO · Heavens-Above · Gunter

§ Orbital elements

Epoch: 2026-09-20T22:00:03.000096Z

Period
92.11 min
Inclination
53.1603°
Eccentricity
0.0000935
Mean motion
15.63344176 rev/d
Perigee alt
377.4 km
Apogee alt
378.6 km
Semi-major
6,756.1 km
B*
2.4572e-3
RAAN
14.4341°
Arg perigee
72.0389°
Mean anomaly
7.2402°
Rev number
584

§ Raw data

STARLINK-302831 57680U 23124T   26263.91670139  .00236513  00000+0  24572-2 0  99942 57680  53.1603  14.4341 0000935  72.0389   7.2402 15.63344176  5841

JSON: /api/v1/satellites/57680 · /tle

For live sub-satellite position, see the globe view (requires WebGL).

§ Visibility from observer

Set your observer location to see the next 7 days of passes ≥ 10°. The values pass through the URL so the page stays shareable.

No JS? Fill the form by hand. The geolocation button needs JavaScript.